www.pogodaiklimat.ru

Погода и климат >> Архив погоды >> Австралия >> Troughton Island


ПОГОДА в Troughton Island

  • Прогноз погоды в Troughton Island
  • Монитор погоды в Troughton Island
  • Климат города

АРХИВ ПОГОДЫ в Troughton Island

Время (UTC), дата Ветер
(напр.,м/с)
 
Видим.   Явления Облачность Т
(С)
Тd
(С)
f
(%)
Тe
(С)
Тes
(С)
Комфортность P
(гПа)
Po
(гПа)
Тmin
(С)
Tmax
(С)
R
(мм)
R24
(мм)
S
(см)
01 13.01 С 7 н/о в посл. час дождь {туман} н/о +27.2 +27.2 100 +43 +43 опасность
перегрева
1009.8 1008.9 +24.5
03 13.01 СЗ 7 н/о н/о +28.9 +28.9 100 +50 +50 опасность
перегрева
1008.9 1008.0
04 13.01 З 5 н/о н/о +29.2 +29.2 100 +52 +52 опасность
перегрева
1008.7 1007.8
06 13.01 З 5 н/о н/о +29.7 +29.7 100 +54 +54 опасность
перегрева
1007.7 1006.8
07 13.01 Ю 6 н/о н/о +28.0 +28.0 100 +46 +46 опасность
перегрева
1007.0 1006.1
09 13.01 ЮЗ 2 н/о н/о +28.3 +28.3 100 +48 +48 опасность
перегрева
1007.2 1006.3
10 13.01 ЮВ 2 н/о н/о +27.8 +27.8 100 +45 +45 опасность
перегрева
1007.8 1006.9
12 13.01 В 2 н/о н/о +27.6 +27.6 100 +45 +45 опасность
перегрева
1009.4 1008.5
13 13.01 штиль 0 н/о н/о +27.4 +27.4 100 +44 +44 опасность
перегрева
1009.6 1008.7 +30.6
15 13.01 СЗ 2 н/о н/о +27.4 +27.4 100 +44 +44 опасность
перегрева
1009.4 1008.5
16 13.01 З 2 н/о н/о +27.7 +27.7 100 +45 +45 опасность
перегрева
1008.6 1007.7
18 13.01 СЗ 4 н/о н/о +25.6 +25.6 100 +37 +37 очень
душно
1008.4 1007.5
19 13.01 ЮЗ 3 н/о в посл. час дождь {туман} н/о +26.1 +26.1 100 +39 +39 очень
душно
1007.7 1006.8
21 13.01 ЮЗ 2 н/о н/о +26.8 +26.8 100 +42 +42 опасность
перегрева
1008.7 1007.8
22 13.01 ЮЗ 2 н/о {туман} н/о +27.4 +27.4 100 +44 +44 опасность
перегрева
1009.3 1008.4
00 14.01 ЮЗ 2 н/о н/о +28.9 +28.9 100 +50 +50 опасность
перегрева
1010.2 1009.3
01 14.01 ЮЗ 2 н/о {туман} н/о +29.1 +29.1 100 +51 +51 опасность
перегрева
1010.2 1009.3 +25.5
03 14.01 З 3 н/о н/о +30.2 +30.2 100 +56 +56 опасность
перегрева
1009.4 1008.5
04 14.01 ЮЗ 3 н/о н/о +30.8 +30.8 100 +60 +60 опасность
перегрева
1008.7 1007.8
06 14.01 З 4 н/о н/о +31.5 +31.5 100 +63 +63 опасность
перегрева
1007.0 1006.1
07 14.01 З 4 н/о н/о +31.3 +31.3 100 +62 +62 опасность
перегрева
1006.3 1005.4
09 14.01 З 3 н/о н/о +30.5 +30.5 100 +58 +58 опасность
перегрева
1006.4 1005.5
10 14.01 СЗ 4 н/о н/о +29.5 +29.5 100 +53 +53 опасность
перегрева
1006.5 1005.6
12 14.01 СЗ 4 н/о н/о +28.8 +28.8 100 +50 +50 опасность
перегрева
1007.7 1006.8
13 14.01 СЗ 3 н/о н/о +28.3 +28.3 100 +48 +48 опасность
перегрева
1008.5 1007.6 +31.8
15 14.01 СЗ 4 н/о н/о +28.0 +28.0 100 +46 +46 опасность
перегрева
1008.4 1007.5
16 14.01 СЗ 4 н/о н/о +27.9 +27.9 100 +46 +46 опасность
перегрева
1007.5 1006.6
18 14.01 З 4 н/о н/о +28.5 +28.5 100 +48 +48 опасность
перегрева
1006.9 1006.0
19 14.01 З 5 н/о н/о +28.5 +28.5 100 +48 +48 опасность
перегрева
1006.5 1005.6
21 14.01 З 4 н/о н/о +28.5 +28.5 100 +48 +48 опасность
перегрева
1007.0 1006.1
22 14.01 З 5 н/о н/о +28.6 +28.6 100 +49 +49 опасность
перегрева
1007.3 1006.4
00 15.01 ЮЗ 4 н/о н/о +29.3 +29.3 100 +52 +52 опасность
перегрева
1008.3 1007.4
01 15.01 З 2 н/о н/о +29.9 +29.9 100 +55 +55 опасность
перегрева
1008.6 1007.7 +27.9
03 15.01 З 3 н/о н/о +31.1 +31.1 100 +61 +61 опасность
перегрева
1007.9 1007.0
04 15.01 З 3 н/о н/о +31.3 +31.3 100 +62 +62 опасность
перегрева
1007.1 1006.2
06 15.01 СЗ 3 н/о н/о +31.6 +31.4 99 +63 +63 опасность
перегрева
1005.2 1004.3
07 15.01 СЗ 4 н/о н/о +31.1 +30.9 99 +61 +61 опасность
перегрева
1004.4 1003.5
09 15.01 З 3 н/о н/о +30.1 +30.1 100 +56 +56 опасность
перегрева
1004.9 1004.0
10 15.01 З 3 н/о н/о +29.5 +29.5 100 +53 +53 опасность
перегрева
1005.8 1004.9
12 15.01 ЮЗ 4 н/о н/о +29.5 +29.5 100 +53 +53 опасность
перегрева
1006.5 1005.6
13 15.01 ЮЗ 4 н/о н/о +29.3 +29.3 100 +52 +52 опасность
перегрева
1006.9 1006.0 +32.2
15 15.01 ЮЗ 4 н/о н/о +29.0 +29.0 100 +51 +51 опасность
перегрева
1007.1 1006.2
16 15.01 ЮЗ 4 н/о н/о +28.6 +28.6 100 +49 +49 опасность
перегрева
1006.6 1005.7
18 15.01 Ю 3 н/о н/о +28.2 +28.2 100 +47 +47 опасность
перегрева
1005.6 1004.7
19 15.01 Ю 3 н/о н/о +28.0 +28.0 100 +46 +46 опасность
перегрева
1005.6 1004.7
21 15.01 Ю 3 н/о н/о +27.9 +27.9 100 +46 +46 опасность
перегрева
1006.2 1005.3
22 15.01 ЮЗ 4 н/о н/о +28.4 +28.4 100 +48 +48 опасность
перегрева
1006.4 1005.5
00 16.01 ЮЗ 5 н/о н/о +30.4 +30.4 100 +58 +58 опасность
перегрева
1006.5 1005.6
01 16.01 ЮЗ 6 н/о н/о +30.6 +30.6 100 +59 +59 опасность
перегрева
1006.5 1005.6 +27.9
03 16.01 ЮЗ 5 н/о н/о +31.8 +31.8 100 +65 +65 опасность
перегрева
1006.2 1005.3
04 16.01 ЮЗ 5 н/о н/о +32.0 +32.0 100 +66 +66 опасность
перегрева
1005.5 1004.6
06 16.01 З 6 н/о н/о +32.0 +31.3 96 +63 +63 опасность
перегрева
1003.8 1002.9
07 16.01 З 7 н/о н/о +32.2 +31.5 96 +64 +64 опасность
перегрева
1003.2 1002.3
09 16.01 З 7 н/о н/о +30.5 +30.5 100 +58 +58 опасность
перегрева
1004.0 1003.1
10 16.01 З 6 н/о н/о +30.2 +30.2 100 +56 +56 опасность
перегрева
1004.6 1003.7
12 16.01 З 8 н/о н/о +30.0 +30.0 100 +55 +55 опасность
перегрева
1006.0 1005.1
13 16.01 ЮЗ 7 н/о н/о +30.1 +30.1 100 +56 +56 опасность
перегрева
1007.0 1006.1 +32.8
15 16.01 ЮЗ 6 н/о н/о +29.4 +29.4 100 +53 +53 опасность
перегрева
1006.3 1005.4
16 16.01 ЮЗ 5 н/о н/о +29.2 +29.2 100 +52 +52 опасность
перегрева
1005.6 1004.7
18 16.01 З 6 н/о н/о +29.2 +29.2 100 +52 +52 опасность
перегрева
1004.6 1003.7
19 16.01 З 7 н/о н/о +29.3 +29.3 100 +52 +52 опасность
перегрева
1004.0 1003.1
21 16.01 З 7 н/о н/о +29.1 +29.1 100 +51 +51 опасность
перегрева
1004.6 1003.7
22 16.01 З 8 н/о н/о +29.2 +29.2 100 +52 +52 опасность
перегрева
1005.1 1004.2
00 17.01 З 7 н/о н/о +30.3 +30.3 100 +57 +57 опасность
перегрева
1005.9 1005.0
01 17.01 ЮЗ 7 н/о н/о +30.7 +30.7 100 +59 +59 опасность
перегрева
1006.4 1005.5 +29.1
03 17.01 ЮЗ 7 н/о н/о +32.0 +31.6 98 +65 +65 опасность
перегрева
1005.3 1004.4
04 17.01 ЮЗ 6 н/о н/о +31.9 +31.7 99 +65 +65 опасность
перегрева
1005.2 1004.3
06 17.01 СЗ 11 н/о н/о +28.2 +28.2 100 +47 +47 опасность
перегрева
1004.7 1003.8
07 17.01 СЗ 8 н/о н/о +28.7 +28.4 98 +48 +48 опасность
перегрева
1004.0 1003.1
09 17.01 СЗ 6 н/о н/о +28.4 +28.4 100 +48 +48 опасность
перегрева
1004.6 1003.7
10 17.01 СЗ 5 н/о н/о +28.6 +28.6 100 +49 +49 опасность
перегрева
1004.8 1003.9
12 17.01 З 7 н/о н/о +28.7 +28.7 100 +49 +49 опасность
перегрева
1006.3 1005.4
13 17.01 З 7 н/о н/о +28.6 +28.6 100 +49 +49 опасность
перегрева
1006.9 1006.0 +32.8
15 17.01 Ю 3 н/о н/о +27.8 +27.8 100 +45 +45 опасность
перегрева
1006.9 1006.0
16 17.01 ЮВ 3 н/о н/о +27.7 +27.7 100 +45 +45 опасность
перегрева
1006.1 1005.2
18 17.01 В 6 н/о н/о +27.9 +27.9 100 +46 +46 опасность
перегрева
1005.0 1004.1
19 17.01 В 5 н/о н/о +28.1 +28.1 100 +47 +47 опасность
перегрева
1005.0 1004.1
21 17.01 С 4 н/о н/о +27.9 +27.9 100 +46 +46 опасность
перегрева
1004.7 1003.8
22 17.01 С 4 н/о н/о +28.0 +28.0 100 +46 +46 опасность
перегрева
1005.5 1004.6
00 18.01 Ю 2 н/о н/о +30.0 +30.0 100 +55 +55 опасность
перегрева
1007.4 1006.5
01 18.01 ЮВ 3 н/о н/о +30.1 +30.1 100 +56 +56 опасность
перегрева
1007.4 1006.5 +27.7
03 18.01 В 4 н/о н/о +30.7 +30.7 100 +59 +59 опасность
перегрева
1006.8 1005.9
04 18.01 ЮВ 2 н/о н/о +31.3 +30.9 98 +61 +61 опасность
перегрева
1006.3 1005.4
06 18.01 З 4 н/о н/о +30.8 +30.4 98 +58 +58 опасность
перегрева
1005.3 1004.4
07 18.01 З 4 н/о н/о +29.9 +29.7 99 +54 +54 опасность
перегрева
1004.5 1003.6
09 18.01 З 5 н/о н/о +30.4 +29.9 97 +56 +56 опасность
перегрева
1004.6 1003.7
10 18.01 З 6 н/о н/о +29.2 +28.9 98 +51 +51 опасность
перегрева
1005.7 1004.8
12 18.01 СЗ 4 н/о н/о +28.9 +28.9 100 +50 +50 опасность
перегрева
1006.4 1005.5
13 18.01 СЗ 4 н/о н/о +28.9 +28.9 100 +50 +50 опасность
перегрева
1007.0 1006.1 +31.8
15 18.01 З 4 н/о н/о +29.0 +29.0 100 +51 +51 опасность
перегрева
1007.2 1006.3
16 18.01 З 5 н/о н/о +28.9 +28.9 100 +50 +50 опасность
перегрева
1006.6 1005.7
18 18.01 З 5 н/о н/о +29.0 +29.0 100 +51 +51 опасность
перегрева
1005.6 1004.7
19 18.01 ЮЗ 6 н/о н/о +28.8 +28.8 100 +50 +50 опасность
перегрева
1005.6 1004.7
21 18.01 Ю 5 н/о н/о +27.5 +27.5 100 +44 +44 опасность
перегрева
1005.4 1004.5
22 18.01 ЮВ 4 н/о н/о +27.3 +27.3 100 +43 +43 опасность
перегрева
1006.0 1005.1
00 19.01 ЮВ 6 н/о н/о +28.6 +28.1 97 +47 +47 опасность
перегрева
1007.3 1006.4
01 19.01 В 5 н/о н/о +29.0 +27.9 94 +48 +48 опасность
перегрева
1007.1 1006.2 +27.3
03 19.01 В 3 н/о н/о +30.3 +30.3 100 +57 +57 опасность
перегрева
1006.2 1005.3
04 19.01 штиль 0 н/о н/о +29.8 +29.1 96 +52 +52 опасность
перегрева
1006.0 1005.1
06 19.01 СВ 3 н/о н/о +30.4 +29.1 93 +53 +53 опасность
перегрева
1004.1 1003.2
07 19.01 С 4 н/о н/о +29.9 +29.7 99 +54 +54 опасность
перегрева
1003.1 1002.2
09 19.01 СЗ 3 н/о н/о +30.2 +28.9 93 +53 +53 опасность
перегрева
1003.7 1002.8
10 19.01 С 3 н/о н/о +29.8 +28.7 94 +51 +51 опасность
перегрева
1004.4 1003.5
12 19.01 С 3 н/о н/о +29.0 +28.1 95 +48 +48 опасность
перегрева
1006.1 1005.2
13 19.01 С 3 н/о н/о +28.7 +27.8 95 +47 +47 опасность
перегрева
1006.8 1005.9 +31.2
15 19.01 СЗ 3 н/о н/о +29.0 +28.8 99 +50 +50 опасность
перегрева
1006.2 1005.3
16 19.01 З 5 н/о н/о +28.6 +28.6 100 +49 +49 опасность
перегрева
1005.3 1004.4
18 19.01 ЮЗ 5 н/о н/о +28.0 +28.0 100 +46 +46 опасность
перегрева
1004.2 1003.3
19 19.01 ЮЗ 4 н/о н/о +28.0 +28.0 100 +46 +46 опасность
перегрева
1003.6 1002.7
21 19.01 Ю 6 н/о н/о +28.1 +28.1 100 +47 +47 опасность
перегрева
1004.8 1003.9
22 19.01 Ю 5 н/о н/о +28.3 +28.3 100 +48 +48 опасность
перегрева
1005.4 1004.5
00 20.01 ЮВ 3 н/о н/о +29.0 +29.0 100 +51 +51 опасность
перегрева
1006.2 1005.3
01 20.01 ЮВ 3 н/о н/о +29.7 +29.7 100 +54 +54 опасность
перегрева
1006.1 1005.2 +27.7

 

Местоположение метеостанции Troughton Island (Западная Австралия, Австралия): широта -13.75 долгота 126.15 высота над уровнем моря 8 м.

В архиве по умолчанию представлена погода в Troughton Island за последнюю неделю. Архивные данные за месяц целиком и за предыдущие месяцы, начиная с января 2011 года, Вы можете получить, выбрав интересующий диапазон дат из раскрывающегося списка и нажав кнопку "Ввод!".

Внимание! Время в таблицах - всемирное. Для получения местного времени необходимо прибавить поправку, которая в Troughton Island равна 8 ч.

Смотрите также архив погоды в соседних городах и на ближайших метеорологических станциях:

Погода в Truscott (Западная Австралия, Австралия) (44 км)
Погода в Kalumburu (Западная Австралия, Австралия) (82 км)
Погода в Browse Island (Западная Австралия, Австралия) (284 км)
Погода в Wyndham Aero (Западная Австралия, Австралия) (290 км)
Погода в Kununurra (Западная Австралия, Австралия) (356 км)
Погода в Port Keats Aero (Северная территория, Австралия) (369 км)
Погода в Adele Island (Западная Австралия, Австралия) (378 км)
Погода в Argyle Aero (Западная Австралия, Австралия) (404 км)
Погода в Bathurst Island (Северная территория, Австралия) (473 км)
Погода в Dum In Mirrie (Северная территория, Австралия) (474 км)

Пояснения к столбцам:

Ветер - указаны скорость ветра в м/с - средняя за 10 мин, порывы в срок и между сроками (в фигурных скобках) и направление, откуда дует ветер: С - северный, СВ - северо-восточный, В - восточный, ЮВ - юго-восточный, Ю - южный, ЮЗ - юго-западный, З - западный, СЗ - северо-западный.
Видимость - горизонтальная дальность видимости в метрах или километрах. При видимости от 1 до 10 км при отсутствии осадков обычно наблюдается дымка, при ухудшении видимости до 1 км и менее - туман. В сухую погоду видимость может ухудшаться дымом, пылью или мглою.
Явления - указаны атмосферные явления, наблюдавшиеся в срок или в последний час перед сроком; фигурными скобками обозначены явления, наблюдавшиеся между сроками (за 1-3 часа до срока); квадратными скобками обозначены град или гололедные отложения с указанием их диаметра в мм.
Облачность - указаны через наклонную черту общая и нижняя облачность в баллах и высота нижней границы облаков в метрах; квадратными скобками обозначены формы облаков: Ci - перистые, Cs - перисто-слоистые, Cc - перисто-кучевые, Ac - высококучевые, As - высокослоистые, Sc - слоисто-кучевые, Ns - слоисто-дождевые, Cu - кучевые, Cb - кучево-дождевые. Подробнее классификацию облаков см. в Атласе облаков (PDF).
T - Температура воздуха - температура, измеренная на высоте 2 м над землей.
Td - Температура точки росы - температура, при понижении до которой содержащийся в воздухе водяной пар достигнет насыщения.
f - Относительная влажность воздуха - влажноcть воздуха, измеренная на высоте 2 м над землей.
Te - Эффективная температура - температура, которую ощущает одетый по сезону человек в тени. Характеристика душности погоды. При расчете учитывается влияние влажности воздуха и скорости ветра на теплоощущения человека.
Tes - Эффективная температура на солнце - температура, которую ощущает человек, с поправкой на солнечный нагрев. Характеристика знойности погоды. Зависит от высоты солнца над горизонтом, облачности и скорости ветра. Ночью, в пасмурную погоду, а также при ветре 12 м/с и более поправка равна нулю.
P - Атмосферное давление - приведенное к уровню моря атмосферное давление.
Po - Атмосферное давление - измеренное на уровне метеостанции атмосферное давление.
Tmin - Минимальная температура - минимум температуры воздуха на высоте 2 м над землей.
Tmax - Максимальная температура - максимум температуры воздуха на высоте 2 м над землей.
R - Количество осадков - Количество выпавших осадков за период времени, мм. При наведении курсора мыши на число - период времени, за который выпало указанное количество осадков.
R24 - Количество осадков - Количество выпавших осадков за 24 часа, мм.
S - Снежный покров - Высота снежного покрова, см. При наведении курсора мыши на число - состояние снежного покрова и степень покрытия местности в баллах.